Location: Poughquag
(41.6090°N, 73.6820°W)
Time: 16:10:29
(UTC-04:00)

STARLINK-1345 - Pass Details

Date: 29 May 2020
Orbit: 548 x 551 km, 53.0° (Epoch: 30 October)

Event Time Altitude Azimuth Distance (km) Brightness Sun altitude
Rises 03:00:13 0° 297° (WNW) 2,728 7.1 -20.1°
Reaches altitude 10° 03:03:08 10° 318° (NW) 1,835 6.5 -19.8°
Maximum altitude 03:05:53 17° 360° (N) 1,449 6.5 -19.5°
Drops below altitude 10° 03:08:39 10° 41° (NE) 1,837 7.5 -19.2°
Sets 03:11:34 0° 62° (ENE) 2,733 8.3 -18.9°
